Time,TemperatureF,DewpointF,PressureIn,WindDirection,WindDirectionDegrees,WindSpeedMPH,WindSpeedGustMPH,Humidity,HourlyPrecipIn,Conditions,Clouds,dailyrainin,SolarRadiationWatts/m^2,SoftwareType,DateUTC
2013-02-27 00:01:00,69.0,58.0,30.08,NNE,31,5.0,7.0,68,0.00,,,0.00,0.000000,,2013-02-27 10:01:00,
2013-02-27 00:12:00,69.0,58.0,30.08,NNE,31,5.0,7.0,68,0.00,,,0.00,0.000000,,2013-02-27 10:12:00,
2013-02-27 00:42:00,70.0,59.0,30.09,NE,50,4.0,7.0,69,0.00,,,0.00,0.000000,,2013-02-27 10:42:00,
2013-02-27 00:52:00,70.0,59.0,30.09,NE,50,4.0,7.0,69,0.00,,,0.00,0.000000,,2013-02-27 10:52:00,
2013-02-27 01:01:00,70.0,59.0,30.09,NE,50,4.0,7.0,69,0.00,,,0.00,0.000000,,2013-02-27 11:01:00,
2013-02-27 01:11:00,70.0,59.0,30.09,NE,50,4.0,7.0,69,0.00,,,0.00,0.000000,,2013-02-27 11:11:00,
2013-02-27 01:32:00,67.0,60.0,30.07,ESE,106,1.0,5.0,77,0.00,,,0.00,0.000000,,2013-02-27 11:32:00,
2013-02-27 01:42:00,67.0,60.0,30.07,ESE,106,1.0,5.0,77,0.00,,,0.00,0.000000,,2013-02-27 11:42:00,
2013-02-27 01:52:00,67.0,60.0,30.07,ESE,106,1.0,5.0,77,0.00,,,0.00,0.000000,,2013-02-27 11:52:00,
2013-02-27 02:02:00,67.0,60.0,30.07,ESE,106,1.0,5.0,77,0.00,,,0.00,0.000000,,2013-02-27 12:02:00,
2013-02-27 02:12:00,67.0,60.0,30.07,ESE,106,1.0,5.0,77,0.00,,,0.00,0.000000,,2013-02-27 12:12:00,
2013-02-27 02:42:00,66.0,59.0,30.06,West,263,0.0,4.0,78,0.00,,,0.00,0.000000,,2013-02-27 12:42:00,
2013-02-27 03:02:00,66.0,59.0,30.06,West,263,0.0,4.0,78,0.00,,,0.00,0.000000,,2013-02-27 13:02:00,
2013-02-27 03:11:00,66.0,59.0,30.06,West,263,0.0,4.0,78,0.00,,,0.00,0.000000,,2013-02-27 13:11:00,
2013-02-27 03:42:00,69.0,60.0,30.05,NE,56,6.0,8.0,72,0.00,,,0.00,0.000000,,2013-02-27 13:42:00,
2013-02-27 03:52:00,69.0,60.0,30.05,NE,56,6.0,8.0,72,0.00,,,0.00,0.000000,,2013-02-27 13:52:00,
2013-02-27 04:02:00,69.0,60.0,30.05,NE,56,6.0,8.0,72,0.00,,,0.00,0.000000,,2013-02-27 14:02:00,
2013-02-27 04:11:00,69.0,60.0,30.05,NE,56,6.0,8.0,72,0.00,,,0.00,0.000000,,2013-02-27 14:11:00,
2013-02-27 04:42:00,67.0,58.0,30.04,East,94,3.0,8.0,74,0.00,,,-99.99,0.000000,,2013-02-27 14:42:00,
2013-02-27 04:52:00,67.0,58.0,30.04,East,94,3.0,8.0,74,0.00,,,-99.99,0.000000,,2013-02-27 14:52:00,
2013-02-27 05:02:00,67.0,58.0,30.04,East,94,3.0,8.0,74,0.00,,,-99.99,0.000000,,2013-02-27 15:02:00,
2013-02-27 05:12:00,67.0,58.0,30.04,East,94,3.0,8.0,74,0.00,,,-99.99,0.000000,,2013-02-27 15:12:00,
2013-02-27 05:42:00,67.0,59.0,30.05,NNW,335,4.0,6.0,76,0.00,,,0.00,0.000000,,2013-02-27 15:42:00,
2013-02-27 05:52:00,67.0,59.0,30.05,NNW,335,4.0,6.0,76,0.00,,,0.00,0.000000,,2013-02-27 15:52:00,
2013-02-27 06:01:00,67.0,59.0,30.05,NNW,335,4.0,6.0,76,0.00,,,0.00,0.000000,,2013-02-27 16:01:00,
2013-02-27 06:11:00,67.0,59.0,30.05,NNW,335,4.0,6.0,76,0.00,,,0.00,0.000000,,2013-02-27 16:11:00,
2013-02-27 06:42:00,66.0,59.0,30.06,North,3,4.0,6.0,78,0.00,,,-99.99,0.000000,,2013-02-27 16:42:00,
2013-02-27 06:52:00,66.0,59.0,30.06,North,3,4.0,6.0,78,0.00,,,-99.99,0.000000,,2013-02-27 16:52:00,
2013-02-27 07:01:00,66.0,59.0,30.06,North,3,4.0,6.0,78,0.00,,,-99.99,0.000000,,2013-02-27 17:01:00,
2013-02-27 07:11:00,66.0,59.0,30.06,North,3,4.0,6.0,78,0.00,,,-99.99,0.000000,,2013-02-27 17:11:00,
2013-02-27 07:42:00,68.0,59.0,30.08,ENE,67,6.0,9.0,72,0.00,,,0.00,9.000000,,2013-02-27 17:42:00,
2013-02-27 07:52:00,68.0,59.0,30.08,ENE,67,6.0,9.0,72,0.00,,,0.00,9.000000,,2013-02-27 17:52:00,
2013-02-27 08:01:00,68.0,59.0,30.08,ENE,67,6.0,9.0,72,0.00,,,0.00,9.000000,,2013-02-27 18:01:00,
2013-02-27 08:11:00,68.0,59.0,30.08,ENE,67,6.0,9.0,72,0.00,,,0.00,9.000000,,2013-02-27 18:11:00,
2013-02-27 08:42:00,76.0,60.0,30.10,ESE,106,4.0,8.0,58,0.00,,,0.00,145.000000,,2013-02-27 18:42:00,
2013-02-27 08:52:00,76.0,60.0,30.10,ESE,106,4.0,8.0,58,0.00,,,0.00,145.000000,,2013-02-27 18:52:00,
2013-02-27 09:01:00,76.0,60.0,30.10,ESE,106,4.0,8.0,58,0.00,,,0.00,145.000000,,2013-02-27 19:01:00,
2013-02-27 09:11:00,76.0,60.0,30.10,ESE,106,4.0,8.0,58,0.00,,,0.00,145.000000,,2013-02-27 19:11:00,
2013-02-27 09:42:00,78.0,63.0,30.11,SSE,166,6.0,10.0,61,0.00,,,0.00,400.000000,,2013-02-27 19:42:00,
2013-02-27 09:52:00,78.0,63.0,30.11,SSE,166,6.0,10.0,61,0.00,,,0.00,400.000000,,2013-02-27 19:52:00,
2013-02-27 10:01:00,78.0,63.0,30.11,SSE,166,6.0,10.0,61,0.00,,,0.00,400.000000,,2013-02-27 20:01:00,
2013-02-27 10:11:00,78.0,63.0,30.11,SSE,166,6.0,10.0,61,0.00,,,0.00,400.000000,,2013-02-27 20:11:00,
2013-02-27 10:42:00,81.0,63.0,30.12,South,169,4.0,10.0,55,0.00,,,-99.99,669.000000,,2013-02-27 20:42:00,
2013-02-27 10:52:00,81.0,63.0,30.12,South,169,4.0,10.0,55,0.00,,,-99.99,669.000000,,2013-02-27 20:52:00,
2013-02-27 11:01:00,81.0,63.0,30.12,South,169,4.0,10.0,55,0.00,,,-99.99,669.000000,,2013-02-27 21:01:00,
2013-02-27 11:11:00,81.0,63.0,30.12,South,169,4.0,10.0,55,0.00,,,-99.99,669.000000,,2013-02-27 21:11:00,
2013-02-27 11:42:00,80.0,63.0,30.12,SW,232,8.0,12.0,57,0.00,,,-99.99,880.000000,,2013-02-27 21:42:00,
2013-02-27 11:52:00,80.0,63.0,30.12,SW,232,8.0,12.0,57,0.00,,,-99.99,880.000000,,2013-02-27 21:52:00,
2013-02-27 12:01:00,80.0,63.0,30.12,SW,232,8.0,12.0,57,0.00,,,-99.99,880.000000,,2013-02-27 22:01:00,
2013-02-27 12:11:00,80.0,63.0,30.12,SW,232,8.0,12.0,57,0.00,,,-99.99,880.000000,,2013-02-27 22:11:00,
2013-02-27 12:42:00,81.0,63.0,30.10,WSW,242,8.0,13.0,55,0.00,,,0.00,1028.000000,,2013-02-27 22:42:00,
2013-02-27 12:52:00,81.0,63.0,30.10,WSW,242,8.0,13.0,55,0.00,,,0.00,1028.000000,,2013-02-27 22:52:00,
2013-02-27 13:01:00,81.0,63.0,30.10,WSW,242,8.0,13.0,55,0.00,,,0.00,1028.000000,,2013-02-27 23:01:00,
2013-02-27 13:11:00,81.0,63.0,30.10,WSW,242,8.0,13.0,55,0.00,,,0.00,1028.000000,,2013-02-27 23:11:00,
2013-02-27 13:32:00,82.0,64.0,30.08,WSW,253,8.0,13.0,55,0.00,,,0.00,1125.000000,,2013-02-27 23:32:00,
2013-02-27 13:42:00,82.0,64.0,30.08,WSW,253,8.0,13.0,55,0.00,,,0.00,1125.000000,,2013-02-27 23:42:00,
2013-02-27 13:53:00,82.0,64.0,30.08,WSW,253,8.0,13.0,55,0.00,,,0.00,1125.000000,,2013-02-27 23:53:00,
2013-02-27 14:01:00,82.0,64.0,30.08,WSW,253,8.0,13.0,55,0.00,,,0.00,1125.000000,,2013-02-28 00:01:00,
2013-02-27 14:11:00,82.0,64.0,30.08,WSW,253,8.0,13.0,55,0.00,,,0.00,1125.000000,,2013-02-28 00:11:00,
2013-02-27 14:42:00,81.0,65.0,30.05,WSW,240,9.0,13.0,58,0.00,,,0.00,1082.000000,,2013-02-28 00:42:00,
2013-02-27 14:52:00,81.0,65.0,30.05,WSW,240,9.0,13.0,58,0.00,,,0.00,1082.000000,,2013-02-28 00:52:00,
2013-02-27 15:01:00,81.0,65.0,30.05,WSW,240,9.0,13.0,58,0.00,,,0.00,1082.000000,,2013-02-28 01:01:00,
2013-02-27 15:11:00,81.0,65.0,30.05,WSW,240,9.0,13.0,58,0.00,,,0.00,1082.000000,,2013-02-28 01:11:00,
2013-02-27 15:32:00,81.0,64.0,30.04,WSW,249,8.0,13.0,56,0.00,,,0.00,967.000000,,2013-02-28 01:32:00,
2013-02-27 15:42:00,81.0,64.0,30.04,WSW,249,8.0,13.0,56,0.00,,,0.00,967.000000,,2013-02-28 01:42:00,
2013-02-27 15:52:00,81.0,64.0,30.04,WSW,249,8.0,13.0,56,0.00,,,0.00,967.000000,,2013-02-28 01:52:00,
2013-02-27 16:01:00,81.0,64.0,30.04,WSW,249,8.0,13.0,56,0.00,,,0.00,967.000000,,2013-02-28 02:01:00,
2013-02-27 16:11:00,81.0,64.0,30.04,WSW,249,8.0,13.0,56,0.00,,,0.00,967.000000,,2013-02-28 02:11:00,
2013-02-27 17:01:00,80.0,63.0,30.03,WSW,250,7.0,11.0,57,0.00,,,0.00,709.000000,,2013-02-28 03:01:00,
2013-02-27 17:11:00,80.0,63.0,30.03,WSW,250,7.0,11.0,57,0.00,,,0.00,709.000000,,2013-02-28 03:11:00,
2013-02-27 17:32:00,79.0,63.0,30.05,SW,236,7.0,10.0,59,0.00,,,0.00,432.000000,,2013-02-28 03:32:00,
2013-02-27 17:42:00,79.0,63.0,30.05,SW,236,7.0,10.0,59,0.00,,,0.00,432.000000,,2013-02-28 03:42:00,
2013-02-27 17:52:00,79.0,63.0,30.05,SW,236,7.0,10.0,59,0.00,,,0.00,432.000000,,2013-02-28 03:52:00,
2013-02-27 18:01:00,79.0,63.0,30.05,SW,236,7.0,10.0,59,0.00,,,0.00,432.000000,,2013-02-28 04:01:00,
2013-02-27 18:11:00,79.0,63.0,30.05,SW,236,7.0,10.0,59,0.00,,,0.00,432.000000,,2013-02-28 04:11:00,
2013-02-27 18:32:00,76.0,62.0,30.06,SW,235,5.0,10.0,63,0.00,,,0.00,172.000000,,2013-02-28 04:32:00,
2013-02-27 18:42:00,76.0,62.0,30.06,SW,235,5.0,10.0,63,0.00,,,0.00,172.000000,,2013-02-28 04:42:00,
2013-02-27 18:52:00,76.0,62.0,30.06,SW,235,5.0,10.0,63,0.00,,,0.00,172.000000,,2013-02-28 04:52:00,
2013-02-27 19:01:00,76.0,62.0,30.06,SW,235,5.0,10.0,63,0.00,,,0.00,172.000000,,2013-02-28 05:01:00,
2013-02-27 19:11:00,76.0,62.0,30.06,SW,235,5.0,10.0,63,0.00,,,0.00,172.000000,,2013-02-28 05:11:00,
2013-02-27 19:32:00,74.0,62.0,30.07,SSW,204,4.0,7.0,66,0.00,,,0.00,6.000000,,2013-02-28 05:32:00,
2013-02-27 19:42:00,74.0,62.0,30.07,SSW,204,4.0,7.0,66,0.00,,,0.00,6.000000,,2013-02-28 05:42:00,
2013-02-27 19:52:00,74.0,62.0,30.07,SSW,204,4.0,7.0,66,0.00,,,0.00,6.000000,,2013-02-28 05:52:00,
2013-02-27 20:01:00,74.0,62.0,30.07,SSW,204,4.0,7.0,66,0.00,,,0.00,6.000000,,2013-02-28 06:01:00,
2013-02-27 20:11:00,74.0,62.0,30.07,SSW,204,4.0,7.0,66,0.00,,,0.00,6.000000,,2013-02-28 06:11:00,
2013-02-27 20:32:00,73.0,63.0,30.09,SSE,151,2.0,6.0,72,0.00,,,0.00,0.000000,,2013-02-28 06:32:00,
2013-02-27 20:42:00,73.0,63.0,30.09,SSE,151,2.0,6.0,72,0.00,,,0.00,0.000000,,2013-02-28 06:42:00,
2013-02-27 20:52:00,73.0,63.0,30.09,SSE,151,2.0,6.0,72,0.00,,,0.00,0.000000,,2013-02-28 06:52:00,
2013-02-27 21:01:00,73.0,63.0,30.09,SSE,151,2.0,6.0,72,0.00,,,0.00,0.000000,,2013-02-28 07:01:00,
2013-02-27 21:11:00,73.0,63.0,30.09,SSE,151,2.0,6.0,72,0.00,,,0.00,0.000000,,2013-02-28 07:11:00,
2013-02-27 21:42:00,70.0,62.0,30.10,ENE,58,4.0,5.0,76,0.00,,,-99.99,0.000000,,2013-02-28 07:42:00,
2013-02-27 21:52:00,70.0,62.0,30.10,ENE,58,4.0,5.0,76,0.00,,,-99.99,0.000000,,2013-02-28 07:52:00,
2013-02-27 22:01:00,70.0,62.0,30.10,ENE,58,4.0,5.0,76,0.00,,,-99.99,0.000000,,2013-02-28 08:01:00,
2013-02-27 22:11:00,70.0,62.0,30.10,ENE,58,4.0,5.0,76,0.00,,,-99.99,0.000000,,2013-02-28 08:11:00,
2013-02-27 22:42:00,70.0,60.0,30.11,ENE,59,4.0,7.0,71,0.00,,,0.00,0.000000,,2013-02-28 08:42:00,
2013-02-27 22:53:00,70.0,60.0,30.11,ENE,59,4.0,7.0,71,0.00,,,0.00,0.000000,,2013-02-28 08:53:00,
2013-02-27 23:03:00,70.0,60.0,30.11,ENE,59,4.0,7.0,71,0.00,,,0.00,0.000000,,2013-02-28 09:03:00,
2013-02-27 23:11:00,70.0,60.0,30.11,ENE,59,4.0,7.0,71,0.00,,,0.00,0.000000,,2013-02-28 09:11:00,
2013-02-27 23:42:00,69.0,59.0,30.11,NE,49,5.0,7.0,71,0.00,,,-99.99,0.000000,,2013-02-28 09:42:00,
2013-02-27 23:52:00,69.0,59.0,30.11,NE,49,5.0,7.0,71,0.00,,,-99.99,0.000000,,2013-02-28 09:52:00,